キャメロン-アイソン彗星

P/2015 PD229 ( Cameron-ISON )

English version
Home page
Updated on April 1, 2017

---------------------------------------------------------------------

・ プロフィール

発見日 2015年8月15日、5月27日
発見光度 18.6等、22.3等
発見者 David A. Cameron (Cerro Tololo), International Scientific Optical Network (ISON) (Siding Spring)

・ 軌道要素

Epoch 2015 Aug. 6.0 TT = JDT 2457240.5
T 2015 Aug. 14.22982 TT                                 MPCW
q   4.8318103            (2000.0)            P               Q
n   0.05126336     Peri.  352.37253     +0.90740255     +0.42013198
a   7.1768084      Node   342.77296     -0.38369185     +0.81801476
e   0.3267467      Incl.    2.02696     -0.17146769     +0.39286253
P  19.23
From 100 observations 2015 May 27-2016 Nov. 24, mean residual 0".4.

・ 光度変化

        m1 = 9.0 + 5 logΔ + 10.0 log r

---------------------------------------------------------------------

軌道要素はM.P.E.C. 2017-A77に掲載されたものです。
光度グラフはComet for Windowsで作成したものです。

---------------------------------------------------------------------

Copyright(C) Seiichi Yoshida (comet@aerith.net). All rights reserved.